Location: Southborough
(51.1500°N, 0.2500°E)
Time: 06:35:33
(UTC+00:00)

Daily predictions for brighter satellites

Satellite Brightness Start Highest point End
(mag) Time Altitude Azimuth Time Altitude Azimuth Time Altitude Azimuth
Cosmos 1271 Rocket 2.9 20:55:44 10° N 20:59:43 64° ENE 21:03:39 10° SSE
NOSS 2-1 (E) 4.0 21:00:08 10° NW 21:04:30 90° SW 21:10:42 10° SE
SPOT 3 Rocket 3.7 21:01:10 10° SSE 21:06:21 79° WSW 21:11:37 10° NNW
RESURS DK-1 3.4 21:04:49 10° NNW 21:08:41 37° NE 21:12:33 10° ESE
ERS-1 Rocket 3.1 21:04:27 10° SSE 21:09:27 68° ENE 21:14:29 10° N
Lacrosse 4 Rocket 4.1 21:09:19 10° W 21:12:46 25° NW 21:16:11 10° NNE
CZ-2C R/B 4.2 21:11:48 10° NNE 21:16:11 41° E 21:20:27 10° SSE
Cosmos 2056 Rocket 3.6 21:12:01 10° SSW 21:17:25 88° ESE 21:22:53 10° NNE
Cosmos 1025 Rocket 3.3 21:13:37 10° SSW 21:17:52 71° WNW 21:22:11 10° N
Cosmos 1455 Rocket 4.1 21:14:14 10° NNW 21:18:22 43° W 21:22:27 10° SSW
Cosmos 2315 Rocket 4.2 21:14:10 10° SSW 21:20:30 79° W 21:26:50 10° N
Cosmos 1741 Rocket 4.4 21:15:21 10° NNW 21:20:37 56° ENE 21:25:51 10° SE
ARIANE 5 R/B 3.0 21:18:19 10° SE 21:22:40 52° ENE 21:26:59 10° N
Cosmos 676 Rocket 4.4 21:18:28 10° NNW 21:23:44 62° WSW 21:28:55 10° S
Cosmos 1420 Rocket 4.0 21:20:01 10° SSW 21:25:16 84° ESE 21:30:36 10° NNE
Cosmos 2344 4.4 21:17:25 10° NW 21:25:44 66° NE 21:37:06 10° ESE
SL-8 R/B 3.8 21:22:28 10° W 21:27:13 62° S 21:32:00 10° ESE
Cosmos 1455 2.7 21:27:11 10° NNW 21:30:56 59° W 21:34:42 10° S
Cosmos 2074 Rocket 4.1 21:27:29 10° N 21:33:48 78° E 21:40:04 10° SSE
USA 245 4.5 21:29:46 10° S 21:34:10 42° WSW 21:37:46 10° NNW
Meteor 2-5 Rocket 4.4 21:34:36 10° SSW 21:40:01 55° WNW 21:45:30 10° N
USA 32 4.4 21:34:52 10° SSW 21:40:04 68° W 21:45:18 10° N
Cosmos 1607 4.1 21:36:39 10° SW 21:42:54 84° NW 21:49:08 10° NE
SL-16 R/B 4.5 21:39:11 10° NNW 21:42:59 18° NNE 21:46:48 10° ENE
USA 267 3.6 21:38:55 10° ENE 21:45:04 42° SE 21:51:12 10° SSW
Cosmos 1536 Rocket 3.5 21:43:55 10° S 21:48:15 84° E 21:52:37 10° NNE
Cosmos 2228 3.0 21:44:12 10° N 21:48:28 73° E 21:52:05 14° SSE
Tiangong 3.3 21:49:06 10° SW 21:50:09 11° SSW 21:50:36 11° S
Cosmos 1850 Rocket 4.0 21:45:34 10° NNW 21:50:50 86° WSW 21:55:21 14° SSE
Cosmos 1980 Rocket 3.1 21:45:41 10° NNW 21:51:06 41° NE 21:56:27 10° ESE
SPOT 5 3.5 21:46:56 10° S 21:51:12 46° W 21:55:24 10° NNW
Nadezhda 1 Rocket 4.1 21:47:09 10° S 21:53:01 57° E 21:58:57 10° NNE
Cosmos 1606 Rocket 3.8 21:49:14 10° N 21:53:30 55° ENE 21:56:56 15° SSE
Cosmos 1697 Rocket 2.8 21:48:13 10° NNW 21:53:51 71° ENE 21:58:44 14° SE
Cosmos 1703 3.2 21:51:22 10° S 21:55:12 75° E 21:59:04 10° NNE
Cosmos 2154 Rocket 4.0 21:52:21 10° N 21:58:39 84° E 22:04:14 13° SSE
Cosmos 2084 Rocket 4.1 21:55:01 10° NW 21:58:44 44° NE 22:02:35 10° ESE
Cosmos 2084 3.7 21:56:13 10° WSW 22:00:03 63° NW 22:03:55 10° NE
Cosmos 1656 4.1 21:57:55 10° NW 22:03:15 55° WSW 22:07:55 14° S
USA 276 2.2 22:00:31 10° WSW 22:03:24 46° SSE 22:06:19 10° E
Cosmos 1328 4.3 22:04:04 16° SSE 22:06:57 45° E 22:10:48 10° NNE
Cosmos 1331 Rocket 4.3 22:04:06 11° S 22:08:58 51° ESE 22:14:06 10° NNE
X-37B 1.5 22:10:24 10° SW 22:12:44 23° S 22:12:57 23° S
Meteor 1-21 Rocket 4.2 22:10:01 11° S 22:15:24 78° E 22:21:05 10° NNE
Lacrosse 5 3.2 22:12:38 10° WNW 22:16:53 27° SW 22:20:08 15° S
Cosmos 1408 3.7 22:15:25 18° SE 22:17:03 27° E 22:20:00 10° NNE
Cosmos 1726 Rocket 3.5 22:13:59 10° N 22:18:19 75° ENE 22:21:23 19° SSE
SAR-Lupe-4 3.7 22:15:02 10° NNE 22:18:35 58° ESE 22:20:59 19° S
Cosmos 1452 Rocket 3.6 22:13:42 10° SSW 22:18:58 85° WNW 22:24:16 10° NNE
ATLAS 2AS CENTAUR R/B 3.8 22:13:57 10° NW 22:20:02 32° WSW 22:25:25 12° S
FALCON 9 DEB 3.6 22:17:12 10° W 22:20:27 60° N 22:23:41 10° E
USA 234 3.3 22:14:32 10° ESE 22:21:07 83° SSW 22:27:43 10° WNW
Terra 2.9 22:17:00 10° SSW 22:21:24 37° W 22:25:51 10° NNW
Cosmos 2322 Rocket 4.3 22:18:09 10° NNW 22:22:29 22° NE 22:26:49 10° E
Cosmos 1833 Rocket 2.7 22:18:03 10° SSW 22:23:36 65° ESE 22:29:10 10° NE
Cosmos 1867 4.1 22:20:46 10° NW 22:26:12 58° NE 22:31:17 11° ESE
SL-8 Rocket 4.3 22:22:53 10° N 22:29:05 60° ENE 22:33:46 18° SSE
Cosmos 1110 Rocket 4.0 22:25:52 10° SSW 22:31:07 81° ESE 22:36:28 10° NNE
Cosmos 2360 4.4 22:26:15 10° NW 22:31:57 68° WSW 22:36:09 19° SSE
Cosmos 1900 4.5 22:27:46 10° NW 22:32:56 73° SW 22:36:32 20° SSE
SAR-Lupe-1 4.1 22:31:09 10° NNE 22:34:44 82° WNW 22:37:27 17° SSW
Cosmos 1302 Rocket 4.5 22:31:56 19° SSE 22:35:19 43° ESE 22:40:13 10° NE
ALOS 2 3.6 22:32:45 16° SE 22:35:50 37° ENE 22:39:53 10° N
Cosmos 2218 Rocket 4.3 22:34:47 10° N 22:41:10 62° ENE 22:45:53 19° SSE
Cosmos 2366 rocket 4.2 22:38:39 10° N 22:44:57 65° ENE 22:49:34 19° SSE
Cosmos 2082 Rocket 2.7 22:42:49 19° S 22:46:32 44° ESE 22:51:55 10° NE
RESURS DK-1 3.6 22:42:58 10° NW 22:46:36 30° WSW 22:48:58 18° SSW
H-2A R/B 4.5 22:45:24 10° NNE 22:49:12 32° E 22:51:09 22° SE
Cosmos 2341 Rocket 4.0 22:43:05 10° N 22:49:28 87° W 22:54:07 19° S
Cosmos 2058 Rocket 3.0 22:47:55 10° NNW 22:52:20 85° W 22:55:04 23° S
Spot 4 3.8 22:52:43 22° SSE 22:55:48 85° ENE 23:00:37 10° NNW
Cosmos 1892 Rocket 3.6 22:53:33 19° SSW 22:56:43 80° WNW 23:01:08 10° N
Cosmos 1825 2.8 22:58:50 26° SSE 23:00:27 41° E 23:04:01 10° NNE
Cosmos 2360 Rocket 4.1 22:57:31 10° NNW 23:02:12 26° NE 23:06:53 10° E
Cosmos 968 Rocket 3.6 22:58:56 10° NNW 23:04:06 68° WSW 23:07:22 23° S
Cosmos 192 4.3 23:00:40 18° SSW 23:04:19 80° ESE 23:09:15 10° NNE
ERS-2 3.7 23:02:00 10° NE 23:04:47 21° E 23:05:53 18° ESE
Cosmos-2242 4.2 23:01:48 10° N 23:05:41 33° ENE 23:08:16 18° SE
GP-B 3.5 23:03:55 10° N 23:08:18 58° W 23:11:19 19° SSW
SL-8 R/B 4.4 23:04:58 10° W 23:09:21 35° SSW 23:11:22 25° SSE
Cosmos 1959 Rocket 4.4 23:03:21 10° N 23:09:30 90° ENE 23:13:40 22° S
Cosmos 1626 Rocket 3.8 23:10:22 26° SSE 23:12:36 54° E 23:16:51 10° NNE
Cosmos 1869 3.2 23:11:21 10° N 23:15:14 84° E 23:17:08 29° SSE
Cosmos 1606 4.2 23:12:42 10° N 23:16:05 28° ENE 23:18:18 17° ESE
BREEZE-M DEB (TANK) 3.5 23:13:21 10° W 23:16:26 72° S 23:27:46 10° ESE
Meteor 1-27 4.2 23:11:29 10° NNW 23:17:05 85° W 23:20:39 23° S
ASTEX 1 4.2 23:13:23 10° N 23:18:10 46° WNW 23:22:15 14° SW
Cosmos 2181 Rocket 4.0 23:20:12 20° S 23:24:39 86° W 23:30:55 10° N
COSMOS 2406 3.3 23:19:53 12° SW 23:25:21 79° WNW 23:31:09 10° NNE
ADEOS Rocket 3.5 23:20:28 21° SSE 23:25:42 88° WSW 23:33:27 10° NNW
Cosmos 1633 3.2 23:25:15 29° SE 23:26:27 39° E 23:29:44 10° NNE
Cosmos 2369 4.3 23:21:17 10° NW 23:26:44 45° WSW 23:30:04 22° S
SL-16 R/B 2.7 23:22:44 10° NNW 23:28:22 58° NE 23:33:07 14° SE
USA 267 3.3 23:21:54 10° ENE 23:28:28 84° NNW 23:35:02 10° WSW
Okean 1-7 Rocket 3.5 23:27:28 25° S 23:30:01 88° W 23:34:33 10° N
Cosmos 1892 3.4 23:30:47 20° SW 23:33:03 47° WNW 23:36:43 10° N
Cosmos 1980 Rocket 2.8 23:29:47 10° NW 23:35:10 44° WSW 23:38:22 23° SSW
SJ 16-02 2.3 23:31:44 10° NNW 23:35:59 42° ENE 23:39:12 16° SE
Cosmos 1486 Rocket 4.0 23:31:14 10° NNW 23:36:28 77° WSW 23:39:34 25° SSE
Cosmos 1697 Rocket 4.2 23:32:58 10° NW 23:37:18 23° WSW 23:40:27 15° SW
Cosmos 2084 Rocket 4.2 23:34:33 10° WNW 23:38:02 31° SW 23:39:10 26° SSW
USA 276 1.8 23:35:58 10° W 23:38:58 72° S 23:41:58 10° E
Cosmos 1821 Rocket 4.0 23:35:28 10° N 23:41:48 83° E 23:45:54 23° SSE
Cosmos 2219 Rocket 4.3 23:37:59 10° NNW 23:42:34 24° NE 23:47:08 10° E
Cosmos 1340 Rocket 4.5 23:48:44 17° SE 23:50:25 22° E 23:53:33 10° NE
Cosmos 1992 Rocket 4.0 23:48:18 23° SSW 23:51:36 82° ESE 23:56:53 10° NNE
Cosmos 1408 4.4 23:49:23 13° WSW 23:51:43 23° WNW 23:54:33 10° NNW
